User: anonymous   Login
Location: Unspecified
(0.0000°N, 0.0000°E)
Time: 18:44:06
(UTC+00:00)
Language:

STSS DEMO 2 (USA 209) - Orbit

View from above orbital plane
View from above orbital plane
View from above satellite
View from above satellite

Ground track
Ground track

The orbit data is extracted from the following two-line orbital elements,

1 35938U 09052B   17202.06279539 0.00000000  00000-0  00000-0 0    00
2 35938  57.9896 292.3026 0012152 347.1555  12.8445 12.79326685    02
Epoch (UTC): 21 July 2017 01:30:25
Eccentricity: 0.0012152
inclination: 57.9896°
perigee height: 1335 km
apogee height: 1353 km
right ascension of ascending node: 292.3026°
argument of perigee: 347.1555°
revolutions per day: 12.79326685
mean anomaly at epoch: 12.8445°
orbit number at epoch: 0

The dashed part of the orbit path shows where the satellite is in the earth's shadow,  

DLR